Voltar ao catálogo

STARLINK-30544

AtivoComunicaçõesVLEO
NORAD 58055·PAYLOAD·🇺🇸 United States

Lançado Oct 13, 2023 de Cape Canaveral Space Force Station

Loading…

Próximas Passagens (próximas 24 horas)

TLE

AtualizadoSource: CelesTrak SupGP

Época: Sep 14, 2026, 22:36 UTC

1 58055C 23158E   26257.94215278  .00014262  00000+0  51633-3 0  2574
2 58055  43.0049  37.9368 0002376 276.0492 217.7826 15.27583990    12

Acompanhe STARLINK-30544 em tempo real com AllMySat

Download on the App Store